Sierra Vista, AZ

11:55 AM MST on May 20, 2018 (GMT -0700)
Sierra Vista Municipal-Libby Army Air Field

Weather History for KFHU - June, 2014

Change the Weather History Date:

Monday, June 16, 2014

  Actual Average Record
Temperature  
Mean Temperature 83 °F -  
Max Temperature 93 °F 89 °F 102 °F (1989)
Min Temperature 73 °F 66 °F 57 °F (1982)
Cooling Degree Days 18    
Growing Degree Days 33 (Base 50)    
Moisture  
Dew Point 35 °F    
Average Humidity 18    
Maximum Humidity 24    
Minimum Humidity 12    
Precipitation  
Precipitation 0.00 in - - ()
Sea Level Pressure  
Sea Level Pressure 29.84 in    
Wind  
Wind Speed 15 mph (WSW)    
Max Wind Speed 25 mph    
Max Gust Speed 36 mph    
Visibility 10 miles    
Events      
Averages and records for this station are not official NWS values.
T = Trace of Precipitation, MM = Missing Value Source: NWS Daily Summary

Daily Weather History Graph

Daily Weather History Graph

Search for Another Location

Airport or City:

Astronomy

Jun. 16, 2014 Rise Set
Actual Time 5:16 AM MST 7:28 PM MST
Civil Twilight 4:47 AM MST 7:56 PM MST
Nautical Twilight 4:13 AM MST 8:30 PM MST
Astronomical Twilight 3:36 AM MST 9:07 PM MST
Moon 10:37 PM MST (6/16) 9:11 AM MST (6/16)
Length of Visible Light 15h 08m
Length of Day
14h 12m
Waning Gibbous, 82% of the Moon is Illuminated
Jun 16
Waning Gibbous
Jun 19
Last Quarter
Jun 27
New
Jul 5
First Quarter
Jul 12
Full

Hourly Weather History & Observations

Time (MST) Temp. Dew Point Humidity Pressure Visibility Wind Dir Wind Speed Gust Speed Precip Events Conditions
12:55 AM 78.8 °F 33.8 °F 20% 29.84 in 10.0 mi SW 11.5 mph - N/A   Partly Cloudy
1:55 AM 77.0 °F 33.8 °F 21% 29.82 in 10.0 mi SW 13.8 mph - N/A   Partly Cloudy
2:55 AM 77.0 °F 32.0 °F 19% 29.82 in 10.0 mi SSW 15.0 mph - N/A   Scattered Clouds
3:55 AM 75.2 °F 30.2 °F 19% 29.82 in 10.0 mi SSW 10.4 mph - N/A   Partly Cloudy
4:55 AM 73.4 °F 32.0 °F 22% 29.85 in 10.0 mi SSW 11.5 mph - N/A   Partly Cloudy
5:55 AM 77.0 °F 33.8 °F 21% 29.86 in 10.0 mi SW 12.7 mph - N/A   Partly Cloudy
6:55 AM 80.6 °F 33.8 °F 18% 29.87 in 10.0 mi SW 11.5 mph - N/A   Scattered Clouds
7:55 AM 82.4 °F 35.6 °F 19% 29.88 in 10.0 mi SW 15.0 mph - N/A   Partly Cloudy
8:55 AM 84.2 °F 37.4 °F 19% 29.88 in 10.0 mi WSW 17.3 mph 25.3 mph N/A   Partly Cloudy
9:55 AM 87.8 °F 37.4 °F 17% 29.88 in 10.0 mi WSW 18.4 mph 28.8 mph N/A   Partly Cloudy
10:55 AM 89.6 °F 35.6 °F 15% 29.88 in 10.0 mi SW 16.1 mph 29.9 mph N/A   Partly Cloudy
11:55 AM 91.4 °F 37.4 °F 15% 29.87 in 10.0 mi West 16.1 mph 24.2 mph N/A   Mostly Cloudy
12:55 PM 93.2 °F 33.8 °F 12% 29.85 in 10.0 mi WSW 25.3 mph 29.9 mph N/A   Mostly Cloudy
1:55 PM 93.2 °F 33.8 °F 12% 29.85 in 10.0 mi West 20.7 mph 35.7 mph N/A   Mostly Cloudy
2:55 PM 91.4 °F 35.6 °F 14% 29.83 in 10.0 mi SW 24.2 mph 31.1 mph N/A   Mostly Cloudy
3:55 PM 91.4 °F 33.8 °F 13% 29.81 in 10.0 mi WSW 17.3 mph 33.4 mph N/A   Scattered Clouds
4:55 PM 91.4 °F 33.8 °F 13% 29.80 in 10.0 mi West 19.6 mph 32.2 mph N/A   Scattered Clouds
5:55 PM 89.6 °F 35.6 °F 15% 29.79 in 10.0 mi West 19.6 mph 28.8 mph N/A   Partly Cloudy
6:55 PM 86.0 °F 37.4 °F 18% 29.80 in 10.0 mi West 12.7 mph - N/A   Partly Cloudy
7:55 PM 82.4 °F 37.4 °F 20% 29.82 in 10.0 mi West 10.4 mph - N/A   Partly Cloudy
8:55 PM 78.8 °F 37.4 °F 23% 29.84 in 10.0 mi West 10.4 mph - N/A   Partly Cloudy
9:55 PM 80.6 °F 37.4 °F 21% 29.85 in 10.0 mi West 12.7 mph - N/A   Scattered Clouds
10:55 PM 78.8 °F 39.2 °F 24% 29.85 in 10.0 mi West 13.8 mph - N/A   Mostly Cloudy
11:55 PM 78.8 °F 37.4 °F 23% 29.85 in 10.0 mi WSW 17.3 mph - N/A   Mostly Cloudy